RH
29 35 51 64 72 64 56 55 54 55 56 54 50 39 22 24 25 23 17 10 12 17 32 42 40 30 42 53 56 47 32 35
32 31 42 45 80 71 58 57 56 57 57 56 52 40 23 27 26 24 19 11 12 20 36 40 36 35 43 63 66 59 43 34
32 28 40 56 94 75 63 60 60 60 60 58 52 36 29 31 29 26 21 11 12 23 37 42 42 44 41 38 50 52 41 38
32 29 41 85 100 76 66 61 60 64 61 55 54 32 31 35 32 31 26 12 14 24 37 46 48 50 54 46 35 30 31 25
27 28 44 90 98 78 64 56 53 55 52 47 45 31 33 39 36 39 33 16 19 30 43 48 47 41 44 43 36 18 16 15
29 27 36 85 98 77 64 51 47 46 44 41 36 33 33 36 38 35 31 17 16 23 29 40 46 45 39 44 36 26 16 12
34 31 28 56 72 77 64 54 44 41 42 38 33 33 30 35 35 32 27 18 15 17 27 35 44 44 41 43 42 35 26 13
43 39 34 48 58 63 65 57 50 43 42 38 34 30 29 31 32 31 27 20 15 20 20 32 43 42 41 43 46 43 39 28
47 39 41 37 58 57 66 62 53 46 43 43 36 33 30 30 32 31 28 22 17 19 28 35 45 46 44 46 48 47 45 41
35 42 41 42 42 57 62 62 58 50 46 44 44 37 33 34 32 32 28 26 20 19 26 33 45 41 45 44 49 48 46 44
26 33 35 45 43 46 57 57 59 57 50 46 46 45 42 38 34 35 33 35 30 21 25 30 40 39 43 48 50 51 48 49
29 29 30 40 48 51 57 60 80 65 58 52 48 49 47 48 43 44 43 44 39 32 24 25 37 35 46 52 56 58 58 56
33 32 30 30 47 66 59 69 79 88 81 60 55 52 59 58 55 56 51 50 50 48 34 26 38 42 46 59 60 65 63 62
34 34 33 32 32 39 55 52 43 50 77 84 62 60 67 99 88 66 63 60 59 55 56 37 38 37 48 58 74 73 72 68
34 34 35 33 33 35 49 73 94 100 99 99 74 80 69 91 99 76 70 73 63 60 57 50 38 37 39 42 68 70 80 65
35 35 36 35 34 39 46 62 98 96 97 100 98 93 94 98 96 99 89 92 73 69 60 62 48 38 39 43 33 36 66 63
39 38 38 39 40 48 59 85 77 60 100 100 100 98 95 97 99 100 100 100 97 78 70 65 63 56 36 33 35 41 39 33
44 43 42 43 44 45 75 86 87 97 98 96 100 99 99 100 100 100 100 99 99 99 90 75 67 66 61 38 28 31 32 40
47 45 45 44 44 50 80 84 88 88 99 100 98 99 99 98 99 100 99 99 99 99 100 98 79 74 68 61 42 31 41 36
58 50 47 59 58 81 88 95 93 95 99 100 99 99 92 96 99 99 100 100 100 100 100 99 99 86 78 74 68 58 40 34
Wind_Speed
16 17 22 25 34 35 36 38 40 39 36 33 31 29 30 28 26 24 22 21 21 22 22 20 20 23 23 22 18 16 17 19
17 15 18 21 37 37 37 38 39 38 36 33 31 30 30 29 26 24 22 22 21 23 23 21 19 20 20 19 16 15 15 17
18 15 16 19 29 40 39 38 38 37 36 34 31 32 32 30 27 25 23 23 22 23 23 21 19 19 18 16 14 14 15 17
19 17 18 22 30 41 41 39 39 39 38 35 35 35 35 32 29 26 25 25 24 24 24 22 20 19 19 15 12 11 13 14
20 18 20 25 32 42 42 41 40 40 39 38 38 36 36 35 32 30 28 28 28 26 25 24 21 18 19 18 15 12 12 12
23 22 22 28 36 44 45 44 43 42 41 40 40 39 39 37 36 34 33 33 32 30 28 24 21 17 16 16 14 14 13 12
30 26 25 29 37 45 47 47 46 44 43 41 41 41 40 40 38 36 35 35 34 32 29 26 23 20 17 16 15 14 13 12
37 32 31 33 37 44 50 50 49 47 45 44 43 42 42 42 39 39 38 37 36 33 30 28 25 22 20 18 16 14 13 13
41 36 35 35 40 41 51 53 53 51 49 46 45 46 45 43 42 41 41 39 37 35 33 31 28 25 22 19 17 15 13 12
43 46 42 40 39 43 48 53 55 55 53 51 49 49 48 46 45 43 43 40 37 37 36 34 31 27 25 22 20 17 15 13
47 51 49 45 43 43 47 50 55 57 57 55 54 53 51 50 49 48 45 42 38 39 37 36 36 32 27 24 22 19 18 17
48 43 44 44 46 48 45 48 51 57 59 59 58 57 55 54 53 51 47 43 40 40 39 38 36 33 30 27 24 23 22 20
47 44 42 41 49 53 51 51 53 54 57 62 62 59 58 58 58 53 46 46 47 44 42 40 39 35 34 30 28 26 25 23
51 53 52 49 51 54 54 53 52 54 57 57 62 63 59 53 56 55 55 54 48 47 45 45 43 43 38 31 20 27 30 30
40 43 44 47 49 51 52 47 46 47 49 51 57 59 62 58 58 57 57 54 52 51 53 52 50 47 45 25 15 15 24 34
42 44 43 44 46 52 54 54 52 53 55 56 54 55 55 60 60 57 57 58 56 55 55 51 51 50 49 46 27 20 14 17
50 48 47 46 48 53 56 54 54 55 52 51 55 54 57 55 55 58 56 57 57 59 57 56 56 55 54 52 46 30 23 24
39 40 42 40 44 48 55 55 52 48 48 50 53 56 55 58 56 58 56 57 55 54 54 57 57 57 54 55 54 51 43 32
32 35 38 39 44 49 53 55 54 49 51 54 51 54 53 56 55 57 55 54 50 52 54 54 57 60 58 56 54 53 40 40
22 25 28 29 38 45 48 51 50 48 50 48 49 52 56 58 56 57 56 52 54 51 49 51 53 57 59 57 55 54 53 52
Wind_Direction
213 222 230 219 214 206 198 194 192 193 193 190 188 187 184 182 180 178 173 168 161 153 148 145 143 142 142 146 144 145 150 156
212 220 227 220 205 201 197 194 193 194 195 194 193 190 187 185 184 183 179 173 166 158 154 151 146 151 150 151 149 148 150 148
211 215 221 212 198 195 196 194 194 195 196 198 196 191 188 187 188 187 184 180 173 166 162 159 151 151 155 152 151 151 150 150
212 214 212 206 197 192 194 195 195 195 198 199 198 195 191 190 190 190 189 185 178 175 172 167 163 160 158 155 148 148 148 148
215 219 213 203 195 193 194 196 196 199 200 199 199 196 193 194 191 191 192 189 184 182 181 179 174 170 165 158 151 144 145 146
225 224 218 207 198 197 196 199 199 200 201 201 200 198 196 196 196 194 194 192 190 188 188 185 181 177 175 164 157 149 146 149
230 224 217 212 202 201 200 202 204 204 202 201 203 202 200 199 198 199 197 198 195 193 192 190 186 183 182 178 168 161 152 153
231 228 220 213 210 206 205 204 207 207 206 204 204 206 205 204 201 200 200 200 199 197 195 195 193 189 188 187 183 177 169 163
235 235 228 219 215 211 210 208 209 210 211 209 207 208 209 207 204 202 203 202 202 199 199 199 200 195 195 194 192 189 184 181
232 234 233 225 220 218 214 213 212 212 213 213 212 211 211 209 208 205 206 201 204 204 202 201 202 204 200 200 199 197 195 196
234 234 234 228 223 226 218 217 216 217 215 216 215 214 213 212 212 209 208 201 204 209 205 207 204 203 206 205 206 205 205 208
236 235 230 228 226 224 223 221 221 219 220 220 219 216 216 214 215 212 207 202 205 213 211 209 212 206 206 208 210 211 213 215
237 226 218 227 224 220 222 220 222 223 224 222 223 221 217 217 216 213 211 208 211 209 212 212 209 209 207 208 213 216 219 219
235 240 235 227 226 230 228 227 229 228 226 225 224 225 220 212 216 215 215 213 211 208 214 212 213 211 203 204 205 219 222 221
227 230 231 228 226 229 230 229 224 217 218 222 228 227 226 218 217 219 218 214 210 208 217 213 212 209 211 198 191 211 215 225
238 236 230 229 232 230 226 220 210 219 218 220 222 227 227 226 222 221 221 218 211 217 220 218 217 217 210 213 214 215 189 212
246 244 244 239 241 232 226 214 218 225 214 214 216 221 228 225 224 221 216 215 219 216 217 217 220 222 221 213 214 217 215 216
237 240 242 241 239 235 221 215 211 207 211 210 213 218 223 227 224 221 224 225 229 228 219 217 219 225 226 225 222 217 221 218
230 231 238 244 241 234 219 217 213 213 211 208 208 211 212 220 224 224 228 228 233 231 230 222 220 225 228 228 229 230 223 230
225 224 232 231 232 222 217 214 212 213 211 210 209 211 218 222 222 224 227 228 228 229 233 228 225 224 229 231 234 235 233 234